Location: Muenchen
(48.1800°N, 11.5800°E)
Time: 03:24:01
(UTC+01:00)

Vanguard 2 Rocket - Visible Passes

Search period start: 11 February 2016 00:00
Search period end: 21 February 2016 00:00
Orbit: 554 x 3329 km, 32.9° (Epoch: 10 February)

Date Brightness Start Highest point End Pass type
(mag) Time Alt. Az. Time Alt. Az. Time Alt. Az.
11 Feb 9.3 03:59:26 13° SSE 04:00:33 13° SE 04:03:59 10° ESE visible
11 Feb 9.1 06:06:10 10° SW 06:12:26 30° SSE 06:22:14 10° ESE visible
12 Feb 8.8 05:09:37 15° SSW 05:13:28 24° SSE 05:20:53 10° ESE visible
13 Feb 8.9 04:13:56 16° SSE 04:14:47 17° SSE 04:19:33 10° ESE visible
13 Feb 9.1 06:20:56 10° SW 06:27:00 29° S 06:36:29 10° ESE visible
14 Feb 8.7 05:24:05 15° SSW 05:27:59 25° SSE 05:35:25 10° ESE visible
15 Feb 8.7 04:28:22 19° S 04:29:13 19° SSE 04:34:29 10° ESE visible
15 Feb 9.0 06:35:55 10° SW 06:41:40 26° S 06:50:24 10° SE visible
16 Feb 9.3 03:32:39 11° SE 03:32:39 11° SE 03:33:23 10° SE visible
16 Feb 8.7 05:38:30 13° SW 05:42:36 24° S 05:49:40 10° SE visible
17 Feb 8.5 04:42:46 19° S 04:43:47 20° SSE 04:49:03 10° SE visible
18 Feb 9.1 03:47:03 13° SE 03:47:03 13° SE 03:48:31 10° SE visible
18 Feb 8.8 05:52:53 10° SW 05:57:19 21° S 06:03:32 10° SE visible
19 Feb 8.5 04:57:11 17° SSW 04:58:27 19° S 05:03:17 10° SE visible
20 Feb 8.9 04:01:28 14° SSE 04:01:28 14° SSE 04:03:08 10° SE visible
20 Feb 8.9 06:08:26 10° SW 06:12:05 16° S 06:16:48 10° SSE visible
